Regional Weather Roundup
Issued by NWS

Home | Current Version | Previous Version | Graphics & Text | Print | Product List | Glossary On
Versions: 1 2 3 4 5 6 7 8 9 10 11 12 13 14 15 16 17 18 19 20 21 22 23 24 25 26 27
000
ASUS45 KPSR 291010
RWRAZ

ARIZONA HOURLY REGIONAL WEATHER ROUNDUP
NATIONAL WEATHER SERVICE PHOENIX AZ
300 AM MST SUN MAY 29 2016

NOTE: FAIR INDICATES FEW OR NO CLOUDS BELOW 12,000 FEET WITH NO
SIGNIFICANT WEATHER AND/OR OBSTRUCTIONS TO VISIBILITY.

AZZ001>003-036-291100-
NORTHWEST ARIZONA

CITY           SKY/WX    TMP DP  RH WIND       PRES   REMARKS
KINGMAN        CLEAR     61  28  28 MISG      29.96S
$$

AZZ004>008-015-016-018-291100-
NORTH CENTRAL ARIZONA

CITY           SKY/WX    TMP DP  RH WIND       PRES   REMARKS
GRAND CANYON   CLEAR     35  25  66 E3        30.15S
WILLIAMS       CLEAR     39  21  48 S9        30.21F WCI  33
PRESCOTT       CLEAR     53  29  39 S9        30.06S
FLAGSTAFF      CLEAR     35  21  56 CALM      30.17S
PAYSON         CLEAR     61  21  21 CALM      30.09S
PAGE           CLEAR     64  31  28 SW5       30.00S
$$

AZZ009>014-017-291100-
NORTHEAST ARIZONA

CITY           SKY/WX    TMP DP  RH WIND       PRES   REMARKS
WINSLOW        CLEAR     50  21  32 SE3       30.07R
SAINT JOHNS    CLEAR     48  21  34 SE3       30.12R
WINDOW ROCK    CLEAR     42  26  53 CALM      30.17R
SHOW LOW       CLEAR     46  18  31 SE7       30.16S
$$

AZZ023-291100-
GREATER PHOENIX AREA

CITY           SKY/WX    TMP DP  RH WIND       PRES   REMARKS
PHOENIX        CLEAR     78  34  20 N5        29.86S
BUCKEYE        CLEAR     68  28  22 NE7       29.88S
LUKE AFB       CLEAR     76  35  22 S7        29.86S
DEER VALLEY    CLEAR     72  31  22 N5        29.89R
SCOTTSDALE     CLEAR     75  34  22 NE5       29.91R
MESA-GATEWAY   CLEAR     68  32  26 E5        29.90S HAZE
$$

AZZ027-028-291100-
SOUTHWEST MARICOPA COUNTY AND PINAL COUNTY

CITY           SKY/WX    TMP DP  RH WIND       PRES   REMARKS
CASA GRANDE    CLEAR     64  28  25 E3        29.91R
GILA BEND      FAIR      68  30  24 S10       29.85S
$$

AZZ503-504-507>509-291100-
SOUTHEAST ARIZONA

CITY           SKY/WX    TMP DP  RH WIND       PRES   REMARKS
TUCSON         CLEAR     63  21  20 SE5       29.98S
DAVIS-MONTHAN  CLEAR     61  18  18 SE9       29.97R
NOGALES        CLEAR     58  19  22 N3        30.03S
SIERRA VISTA   CLEAR     58  10  14 VRB6      30.07F
DOUGLAS        CLEAR     54   7  15 CALM      30.05S
SAFFORD        CLEAR     59  15  18 E5        29.97R
$$

AZZ020-021-025-026-031-291100-
SOUTHWEST ARIZONA

CITY           SKY/WX    TMP DP  RH WIND       PRES   REMARKS
YUMA           CLEAR     73  46  38 E12       29.80S
$$

CAZ031-033-041-043-047-048-061-291100-
SOUTHERN CALIFORNIA

CITY           SKY/WX    TMP DP  RH WIND       PRES   REMARKS
DOWNTOWN L.A.  CLOUDY    61  53  75 CALM      29.95F
L.A. AIRPORT   CLOUDY    60  53  77 NW3       29.96S
SAN DIEGO      CLOUDY    61  55  81 SW5       29.98S
BURBANK        CLOUDY    58  54  86 S3        29.95S
ONTARIO        CLOUDY    60  53  77 W7        29.95S
RIVERSIDE      CLOUDY    61  53  75 W5        29.95F
PALM SPRINGS   CLEAR     70  53  54 NW8       29.83S
EL CENTRO NAS  CLEAR     71  48  43 CALM      29.80S
IMPERIAL       CLEAR     70  53  54 CALM      29.79R
BLYTHE         CLEAR     74  37  26 S5        29.82R
NEEDLES        CLEAR     77  33  20 W10       29.82R
$$

NVZ020-UTZ003-291100-
SOUTHERN NEVADA-UTAH

CITY           SKY/WX    TMP DP  RH WIND       PRES   REMARKS
LAS VEGAS      PTCLDY    75  26  16 S5        29.82S
SALT LAKE CITY MOCLDY    57  39  51 S7        30.05S
$$

NMZ009-TXZ055-291100-
NEW MEXICO-WEST TEXAS

CITY           SKY/WX    TMP DP  RH WIND       PRES   REMARKS
ALBUQUERQUE    PTCLDY    59  17  19 CALM      30.10R
EL PASO        CLOUDY    78   1   5 NW5       30.03R
$$


........................KEY........................
SKY/WX - SKY CONDITION/WEATHER
TMP    - TEMPERATURE IN FAHRENHEIT
DP     - DEW POINT IN FAHRENHEIT
RH     - RELATIVE HUMIDITY IN PERCENT
WIND   - DIRECTION AND SPEED IN MILES PER HOUR (MPH)
VRB    - VARIABLE WIND DIRECTION
PRES   - MEAN SEA LEVEL PRESSURE IN INCHES OF MERCURY
         F - FALLING PRESSURE   R - RISING PRESSURE
         S - STEADY PRESSURE
VSB    - VISIBILITY IN MILES
HX     - HEAT INDEX IN FAHRENHEIT
WCI    - WIND CHILL INDEX IN FAHRENHEIT
TC     - TEMPERATURE IN CELSIUS WHICH IS ALSO KNOWN AS
         TEMPERATURE IN CENTIGRADE
AFB    - AIR FORCE BASE
         LUKE AFB IS LUKE AIR FORCE BASE
         DAVIS-MONTHAN IS DAVIS-MONTHAN AIR FORCE BASE
NAS    - NAVAL AIR STATION
         EL CENTRO NAS IS EL CENTRO NAVAL AIR STATION
N/A    - NOT AVAILABLE





USA.gov is the U.S. government's official web portal to all federal, state and local government web resources and services.